Regional Weather Roundup
Issued by NWS

Home | Current Version | Previous Version | Text Only | Print | Product List | Glossary On
Versions: 1 2 3 4 5 6 7 8 9 10 11 12 13 14 15 16 17 18 19 20 21 22 23 24 25 26 27 28 29 30 31 32 33 34 35 36 37 38 39 40 41 42 43 44 45 46 47 48 49 50
000
ASUS43 KTOP 220159
RWRKS

WEATHER ROUNDUP FOR KANSAS
NATIONAL WEATHER SERVICE GOODLAND KS
800 PM CST TUE FEB 21 2017

NOTE:  "FAIR" INDICATES FEW OR NO CLOUDS BELOW 12,000 FEET WITH NO
SIGNIFICANT WEATHER AND/OR OBSTRUCTIONS TO VISIBILITY.

KSZ001>006-013>018-027>032-041>047-220300-
NORTHWEST KANSAS

CITY           SKY/WX    TMP DP  RH WIND       PRES   REMARKS
GOODLAND       CLEAR     63  19  18 S13       29.90S
HAYS             N/A     57  25  29 S9        29.88S
HILL CITY      CLEAR     57  26  30 SW3       29.86F
RUSSELL        CLEAR     51  27  39 S12       29.86F
$$

KSZ061>065-074>080-084>089-220300-
SOUTHWEST KANSAS

CITY           SKY/WX    TMP DP  RH WIND       PRES   REMARKS
DODGE CITY     CLEAR     54  23  30 S8        29.92F
ELKHART          N/A     53  20  27 MISG        N/A
GARDEN CITY    CLEAR     54  21  27 SE10      29.92F
GREAT BEND     CLEAR     51  28  41 S9        29.90S
LIBERAL        CLEAR     55  21  26 S6        29.96F
$$

KSZ066>073-081>083-090>101-220300-
SOUTHEAST KANSAS

CITY           SKY/WX    TMP DP  RH WIND       PRES   REMARKS
CHANUTE        CLEAR     49  41  74 CALM      29.90F
COFFEYVILLE    CLEAR     56  46  69 E3        29.91R
HUTCHINSON     CLEAR     54  38  54 SE5       29.91S
MEDICINE LODGE   N/A     56  39  53 S3        29.92S
NEWTON         CLEAR     55  37  50 S8        29.93S
PARSONS        CLEAR     49  42  77 CALM      29.92R
WICHITA INTL   CLEAR     52  39  61 S7        29.91F
WICHITA JABRA  CLEAR     57  36  45 S6        29.91F
WINFIELD       CLEAR     57  41  55 CALM      29.93F
$$

KSZ007>012-019>026-033>040-048>060-102>105-220300-
NORTHEAST KANSAS

CITY           SKY/WX    TMP DP  RH WIND       PRES   REMARKS
CONCORDIA      CLEAR     62  28  27 S15       29.84F
EMPORIA        CLEAR     54  31  41 SW3       29.92R
LAWRENCE       CLEAR     45  33  63 CALM      29.89F
MANHATTAN      CLEAR     52  34  50 CALM      29.89S
OLATHE IND     CLEAR     53  36  52 CALM      29.90F
OLATHE EXE     CLEAR     55  39  54 CALM      29.89F
SALINA         CLEAR     50  34  54 S7        29.88F
TOPEKA BILLARD CLEAR     50  32  50 CALM      29.90R
TOPEKA FORBES  CLEAR     49  34  56 CALM      29.90R
$$




USA.gov is the U.S. government's official web portal to all federal, state and local government web resources and services.